User: anonymous   Login
Location: Unspecified
(0.0000°N, 0.0000°E)
Time: 00:25:57
(UTC+00:00)
Language:

Vela 3A - Orbit

View from above orbital plane
View from above orbital plane
View from above satellite
View from above satellite

Ground track
Ground track

The orbit data is extracted from the following two-line orbital elements,

1  1458U 65058A   17164.70358878 -.00001117 +00000-0 +00000-0 0  9998
2  1458 023.7110 006.3641 5050296 224.1094 001.2624 00.21368836079168
Epoch (UTC): 13 June 2017 16:53:10
Eccentricity: 0.5050296
inclination: 23.7110°
perigee height: 52117 km
apogee height: 171486 km
right ascension of ascending node: 6.3641°
argument of perigee: 224.1094°
revolutions per day: 0.21368836
mean anomaly at epoch: 1.2624°
orbit number at epoch: 7916

The dashed part of the orbit path shows where the satellite is in the earth's shadow,  

DLR